User: anonymous   Login
Location: Izdebno
(52.6670°N, 16.2170°E)
Time: 17:38:48
(UTC+01:00)
Language:

Transit 2A Rocket - Orbit

View from above orbital plane
View from above orbital plane
View from above satellite
View from above satellite

Ground track
Ground track

The orbit data is extracted from the following two-line orbital elements,

1 00047U 60007C   24052.64839178  .00000407  00000-0  11464-3 0  9993
2 00047  66.6659 158.7568 0219840  37.7732 323.8573 14.43308874328549
Epoch (UTC): 21 February 2024 15:33:41
Eccentricity: 0.0219840
inclination: 66.6659°
perigee height: 591 km
apogee height: 904 km
right ascension of ascending node: 158.7568°
argument of perigee: 37.7732°
revolutions per day: 14.43308874
mean anomaly at epoch: 323.8573°
orbit number at epoch: 32854

The dashed part of the orbit path shows where the satellite is in the earth's shadow,  

DLR